Location: Balagbag Mahabang Kahoy
(14.1562°N, 120.9200°E)
Time: 04:38:50
(UTC+00:00)

Atlas Centaur 2 - Pass Details

Date: 16 January 2026
Orbit: 456 x 1249 km, 30.4° (Epoch: 15 February)

Event Time Altitude Azimuth Distance (km) Brightness Sun altitude
Exits shadow 21:02:59 18° 343° (NNW) 1,841 3.6 -19.5°
Maximum altitude 21:03:43 18° 353° (N) 1,852 3.7 -19.3°
Drops below altitude 10° 21:07:47 10° 35° (NE) 2,559 4.9 -18.4°
Sets 21:11:33 0° 53° (NE) 3,680 6.0 -17.5°
